194 Commits

Author SHA1 Message Date
kvan7 cd7f478214 basic log parser running 2026-04-27 18:08:37 -05:00
kvan7 8667f64065 add channels to file writer 2026-04-26 09:31:10 -05:00
kvan7 19aa92e330 add remainder of fr adding possibly 2026-04-13 18:45:51 -05:00
kvan7 b897c2619a version bump 2026-03-27 19:45:04 -05:00
Kvan7 4e9dc7fcb2 Chaos spam data (#863)
* create base component

* add as alpha

* Add hotkey action

* updating config stuff

* Adds writing csv

* ui responsive

* Style updates

* smor style updates

* fix issue with recreating file

* compute diff

* general cleanup

* rebuild into secondary widget

* Remove builtin error

* add a unit test

* fix spelling?

* add custom file path

* Add folder option
2026-03-27 18:41:04 -05:00
kvan7 a336e9b3d5 version bump 2026-01-10 10:55:38 -06:00
kvan7 a0033c5470 version bump 2026-01-10 10:18:11 -06:00
Kvan7 b50584c913 version bump 2025-12-22 21:15:30 -06:00
kvan7 73cd5a4712 remove split mac 2025-12-20 13:02:50 -06:00
kvan7 acb414c62c version bump 2025-12-20 08:50:45 -06:00
kvan7 66b601b8a9 forgot to bump version 2025-12-20 08:42:52 -06:00
kvan7 25c2e2cd5b Remove backspace press when doing stash search
Fixes #694
2025-12-20 08:33:08 -06:00
kvan7 0bb1e91637 Revert to use apt OverlayWindow 2025-12-20 08:32:15 -06:00
kvan7 081f47b05b version bump 2025-12-19 22:32:34 -06:00
kvan7 fcb12848e2 add uncaught error handlers 2025-12-19 21:55:17 -06:00
kvan7 3b7a87c2b4 try hide net error again 2025-12-19 20:51:22 -06:00
kvan7 9c3afa8d76 version bump 2025-12-19 12:54:25 -06:00
kvan7 6340e415b7 version bump 2025-12-17 18:47:48 -06:00
kvan7 9fc0854958 version bump 2025-12-13 07:28:03 -06:00
kvan7 eafd795abc version bump 2025-12-13 03:19:01 -06:00
kvan7 b4fd783634 bump 2025-12-12 13:45:28 -06:00
kvan7 ae6fe133fe bump version and fix pre-commits 2025-12-12 09:02:05 -06:00
Kvan7 ab98903edf Features/leveling (#766)
* Add opt-in log reading

* add regex and zone detection

* add widget for leveling

* generic rigging setup

* penalty

* attach settings view

* add client log reading

* slight refactor of widget name

* Connect xp to logs

* Settings options and i18n

* update styles

* PR fixes
2025-12-11 23:19:10 -06:00
kvan7 e4acfb7139 run precommit on all 2025-12-04 21:59:38 -06:00
kvan7 de30c0b70e Clean up linux focusing 2025-11-29 12:44:35 -06:00
kvan7 e90d2cc479 version bump 2025-09-30 22:18:56 -05:00
kvan7 ab13ffdf15 version bump 2025-09-29 06:44:37 -05:00
kvan7 d9902767dd version bump 2025-09-23 22:00:47 -05:00
kvan7 b91583a90e version bump 2025-09-22 20:50:49 -05:00
kvan7 a344d3e1cf version bump 2025-09-16 21:09:07 -05:00
kvan7 c369170608 Fix for upstream bug 2025-09-15 20:38:03 -05:00
kvan7 3b3f80bc53 Drop any fixes for uncut gems
Fixes #628
2025-09-15 17:02:10 -05:00
kvan7 6c5db5e0ca version bump 2025-09-14 21:55:45 -05:00
kvan7 37b8ff1c9f old installer 2025-09-13 17:36:34 -05:00
Kvan7 8dae04129b Merge pull request #674 from DBosley/fix/linux-gnome-focus-issue
fix: Prevent focus stealing on Linux
2025-09-11 16:08:47 -05:00
Dave Bosley ef389554fd fix: Prevent focus stealing on Linux/X11 with GNOME
Fixes #299 - Overlay no longer causes GNOME desktop to appear over fullscreen games.

Sets window type to 'toolbar' and manages focusable state dynamically on Linux.
2025-09-11 00:21:59 -06:00
kvan7 7abeb85016 version bump 2025-09-10 22:00:53 -05:00
kvan7 3732270de9 next attempt at fixing installer issues 2025-09-10 16:30:56 -05:00
kvan7 f3e1c7fee6 version bump 2025-09-10 06:02:05 -05:00
kvan7 f9b0b5a70d version bump 2025-09-09 23:26:05 -05:00
kvan7 d4eed621d4 works? 2025-09-09 21:18:22 -05:00
kvan7 428255cf6c add precommit stuff 2025-09-06 17:16:59 -05:00
kvan7 af588273c4 version bump 2025-09-04 21:21:39 -05:00
kvan7 fe952b59d0 try to build it again maybe 2025-09-04 20:28:18 -05:00
kvan7 a8516b9977 version bump 2025-09-04 20:08:04 -05:00
kvan7 f476b249b3 Add INSTANT BUYOUT 2025-08-29 17:15:35 -05:00
kvan7 af4d474148 version bump cause ci/cd 2025-08-29 09:37:34 -05:00
kvan7 8fff1551ef version bump 2025-08-29 07:20:38 -05:00
kvan7 32b98801c6 Drop filter generator for 0.11 2025-08-27 16:05:39 -05:00
kvan7 3a64e003f6 Feat: uncut gems fixed 2025-08-02 10:54:31 -05:00